Regional Weather Roundup
Issued by NWS

Home | Current Version | Previous Version | Graphics & Text | Print | Product List | Glossary On
Versions: 1 2 3 4 5 6 7 8 9 10 11 12 13 14 15 16 17 18 19 20 21 22 23 24 25 26 27 28 29 30 31 32 33 34 35 36 37 38 39 40 41 42 43 44 45 46 47 48 49 50
570
ASUS43 KTOP 050408
RWRKS

WEATHER ROUNDUP FOR KANSAS
NATIONAL WEATHER SERVICE GOODLAND KS
1100 PM CDT WED MAY 04 2016

NOTE:  "FAIR" INDICATES FEW OR NO CLOUDS BELOW 12,000 FEET WITH NO
SIGNIFICANT WEATHER AND/OR OBSTRUCTIONS TO VISIBILITY.

KSZ001>006-013>018-027>032-041>047-050500-
NORTHWEST KANSAS

CITY           SKY/WX    TMP DP  RH WIND       PRES   REMARKS
GOODLAND       CLEAR     55  42  61 SE5       30.12R
HAYS           CLEAR     55  41  58 MISG        N/A
HILL CITY      CLEAR     50  44  80 CALM      30.09R
RUSSELL        CLEAR     56  41  57 SE5       30.07R
$$

KSZ061>065-074>080-084>089-050500-
SOUTHWEST KANSAS

CITY           SKY/WX    TMP DP  RH WIND       PRES   REMARKS
DODGE CITY     CLEAR     56  45  66 E7        30.10R
ELKHART          N/A     59  42  53 S8          N/A
GARDEN CITY    CLEAR     56  45  66 E5        30.10R
GREAT BEND     CLEAR     54  43  66 CALM      30.08S
LIBERAL        CLEAR     63  43  48 E7        30.12R
PRATT          CLEAR     56  42  57 CALM      30.08R
$$

KSZ066>073-081>083-090>101-050500-
SOUTHEAST KANSAS

CITY           SKY/WX    TMP DP  RH WIND       PRES   REMARKS
CHANUTE        CLEAR     50  42  74 CALM      30.02R
COFFEYVILLE    CLEAR     55  44  66 CALM      30.02R
HUTCHINSON     CLEAR     48  42  80 CALM      30.06R
MEDICINE LODGE   N/A     55  45  68 CALM      30.06S
NEWTON         CLEAR     54  36  50 CALM      30.07S
PARSONS        CLEAR     50  46  86 CALM      30.03R
WICHITA INTL   CLEAR     55  40  56 NW6       30.05R
WICHITA JABRA  CLEAR     58  38  47 NW6       30.05R
WICHITA MCCONL CLEAR     60  38  43 N7        30.05R
WINFIELD       CLEAR     55  41  59 CALM      30.39F
$$

KSZ007>012-019>026-033>040-048>060-102>105-050500-
NORTHEAST KANSAS

CITY           SKY/WX    TMP DP  RH WIND       PRES   REMARKS
CONCORDIA      CLEAR     56  34  43 NW3       30.05R
EMPORIA        CLEAR     54  41  61 W6        30.03R
LAWRENCE       CLEAR     47  41  80 NW7       30.02R
MANHATTAN      CLEAR     49  40  71 CALM      30.03R
MARYSVILLE     CLEAR     52  39  62 CALM      30.03S
OLATHE IND     CLEAR     53  40  61 NW5       30.02R
OLATHE EXE     CLEAR     59  38  45 N5        30.01R
SALINA         CLEAR     56  42  59 CALM      30.05S
TOPEKA BILLARD CLEAR     52  43  71 CALM      30.02R
TOPEKA FORBES  CLEAR     50  41  71 NW3       30.02R
$$




USA.gov is the U.S. government's official web portal to all federal, state and local government web resources and services.